Weather History for Punta Gorda, FL

Change the Weather History Date:

Friday, August 2, 2013

  Actual Average Record
Temperature  
Mean Temperature 82 °F -  
Max Temperature 91 °F 88 °F 97 °F (2014)
Min Temperature 73 °F 71 °F 71 °F (2000)
Cooling Degree Days 16    
Growing Degree Days 32 (Base 50)    
Moisture  
Dew Point 73 °F    
Average Humidity 81    
Maximum Humidity 100    
Minimum Humidity 50    
Precipitation  
Precipitation 0.39 in - - ()
Sea Level Pressure  
Sea Level Pressure 30.03 in    
Wind  
Wind Speed 4 mph (West)    
Max Wind Speed 24 mph    
Max Gust Speed 28 mph    
Visibility 9 miles    
Events Fog , Rain , Thunderstorm    
Averages and records for this station are not official NWS values.
T = Trace of Precipitation, MM = Missing Value Source: NWS Daily Summary

Daily Weather History Graph

Daily Weather History Graph

Search for Another Location

Airport:

Trip Planner

Search our weather history database for the weather conditions in past years. The results will help you decide how hot, cold, wet, or windy it might be!

Date:

Astronomy

Aug. 02, 2013 Rise Set
Actual Time 6:53 AM EDT 8:15 PM EDT
Civil Twilight 6:28 AM EDT 8:39 PM EDT
Nautical Twilight 5:58 AM EDT 9:09 PM EDT
Astronomical Twilight 5:27 AM EDT 9:40 PM EDT
Moon 3:16 AM EDT (8/2) 5:07 PM EDT (8/2)
Length of Visible Light 14h 11m
Length of Day
13h 21m
Waning Crescent, 16% of the Moon is Illuminated
Aug 2
Waning Crescent
Aug 6
New
Aug 14
First Quarter
Aug 20
Full
Aug 28
Last Quarter

Hourly Weather History & Observations

Time (EDT) Temp. Heat Index Dew Point Humidity Pressure Visibility Wind Dir Wind Speed Gust Speed Precip Events Conditions
12:53 AM 75.0 °F - 73.9 °F 96% 30.00 in 10.0 mi NNE 4.6 mph - 0.00 in   Clear
1:53 AM 75.0 °F - 73.9 °F 96% 30.00 in 10.0 mi Calm Calm - N/A   Clear
2:53 AM 75.0 °F - 73.9 °F 96% 29.99 in 10.0 mi Calm Calm - N/A   Clear
3:53 AM 75.0 °F - 73.0 °F 94% 29.98 in 10.0 mi Calm Calm - N/A   Clear
4:53 AM 73.9 °F - 73.0 °F 97% 29.97 in 10.0 mi Calm Calm - N/A   Clear
5:53 AM 73.9 °F - 73.0 °F 97% 29.99 in 10.0 mi North 3.5 mph - N/A   Clear
6:53 AM 73.0 °F - 72.0 °F 96% 30.00 in 10.0 mi SSE 3.5 mph - N/A   Clear
7:10 AM 73.4 °F - 73.4 °F 100% 29.99 in 10.0 mi Calm Calm - N/A   Partly Cloudy
7:53 AM 75.9 °F - 73.9 °F 94% 30.01 in 10.0 mi Calm Calm - N/A   Clear
8:53 AM 81.0 °F 86.7 °F 75.0 °F 82% 30.01 in 10.0 mi Calm Calm - N/A   Clear
9:53 AM 84.0 °F 91.2 °F 73.9 °F 72% 30.02 in 10.0 mi SSE 3.5 mph - N/A   Clear
10:53 AM 86.0 °F 92.2 °F 72.0 °F 63% 30.04 in 10.0 mi Calm Calm - N/A   Clear
11:53 AM 88.0 °F 94.7 °F 72.0 °F 59% 30.05 in 10.0 mi Variable 3.5 mph - N/A   Clear
12:53 PM 90.0 °F 94.5 °F 69.1 °F 50% 30.05 in 10.0 mi Calm Calm - N/A   Clear
1:53 PM 84.0 °F 89.0 °F 71.1 °F 65% 30.05 in 10.0 mi WNW 17.3 mph 24.2 mph N/A   Overcast
2:07 PM 77.0 °F - 71.6 °F 83% 30.05 in 1.5 mi West 24.2 mph 27.6 mph 0.14 in Rain Heavy Rain
2:15 PM 77.0 °F - 73.4 °F 89% 30.06 in 0.5 mi West 12.7 mph 27.6 mph 0.33 in Fog , Rain Rain
2:21 PM 75.2 °F - 73.4 °F 94% 30.06 in 2.0 mi West 12.7 mph - 0.35 in Rain Rain
2:29 PM 75.2 °F - 73.4 °F 94% 30.05 in 3.0 mi West 8.1 mph - 0.38 in Rain Rain
2:53 PM 79.0 °F - 75.0 °F 88% 30.04 in 10.0 mi WNW 6.9 mph - 0.39 in   Mostly Cloudy
3:53 PM 88.0 °F 96.5 °F 73.9 °F 63% 30.01 in 10.0 mi WNW 6.9 mph - N/A   Clear
4:53 PM 90.0 °F 96.9 °F 72.0 °F 55% 30.00 in 10.0 mi NW 9.2 mph - N/A   Clear
5:53 PM 87.1 °F 95.4 °F 73.9 °F 65% 30.00 in 10.0 mi WNW 6.9 mph - N/A   Clear
6:53 PM 84.9 °F 92.1 °F 73.9 °F 69% 30.01 in 10.0 mi West 3.5 mph - N/A   Clear
7:53 PM 84.9 °F 92.1 °F 73.9 °F 69% 30.04 in 10.0 mi Calm Calm - N/A   Clear
8:14 PM 84.2 °F 92.3 °F 75.2 °F 74% 30.04 in 10.0 mi Calm Calm - N/A Thunderstorm Clear
8:29 PM 82.4 °F 89.5 °F 75.2 °F 79% 30.04 in 10.0 mi SE 3.5 mph - N/A   Clear
8:53 PM 82.0 °F 87.9 °F 73.9 °F 76% 30.07 in 10.0 mi East 9.2 mph - N/A   Partly Cloudy
9:53 PM 80.1 °F 83.8 °F 72.0 °F 76% 30.07 in 10.0 mi SSE 5.8 mph - N/A   Clear
10:53 PM 78.1 °F - 73.0 °F 84% 30.08 in 10.0 mi East 4.6 mph - N/A   Clear
11:53 PM 79.0 °F - 73.9 °F 84% 30.08 in 10.0 mi Calm Calm - N/A   Partly Cloudy